Location: Normandy Village
(37.8755°N, 122.2655°W)
Time: 16:31:46
(UTC+00:00)

Sakura Rocket - Pass Details

Date: 22 September 2019
Orbit: 476 x 1744 km, 28.7° (Epoch: 14 October)

Event Time Altitude Azimuth Distance (km) Brightness Sun altitude
Exits shadow 12:11:24 22° 178° (S) 1,275 4.5 -21.3°
Drops below altitude 10° 12:14:53 10° 131° (SE) 2,102 6.2 -20.6°
Sets 12:18:03 0° 117° (ESE) 3,238 7.4 -20.0°
